BAW1350 EGLL-EGJJ

Flight info

Callsign BAW1350
Flight time N/A
Altitude 23000
Route GOGSI N621 SAM/N0399F220 N63 LELNA
Aircraft A21N/M-SDE2E3FGHIRWXY/LB1

Departure

Time N/A
Airport London Heathrow Airport (EGLL)

Arrival

Time 2026-05-07 12:54
Airport Jersey Airport (EGJJ)
Time Latitude Longitude Altitude Speed Heading
2026-05-07 12:36 50.88811 -0.88088 23053 ft 460 kts 204°
2026-05-07 12:36 50.85871 -0.90090 23047 ft 460 kts 204°
2026-05-07 12:36 50.82932 -0.92089 23057 ft 460 kts 204°
2026-05-07 12:37 50.79993 -0.94084 23065 ft 460 kts 204°
2026-05-07 12:37 50.77095 -0.96050 23065 ft 459 kts 204°
2026-05-07 12:37 50.74160 -0.98039 23062 ft 459 kts 204°
2026-05-07 12:37 50.71225 -1.00024 23064 ft 459 kts 204°
2026-05-07 12:38 50.68290 -1.02007 23066 ft 459 kts 204°
2026-05-07 12:38 50.65351 -1.03990 23063 ft 459 kts 204°
2026-05-07 12:38 50.62418 -1.05966 23061 ft 459 kts 204°
2026-05-07 12:38 50.59477 -1.07945 23067 ft 459 kts 204°
2026-05-07 12:39 50.56541 -1.09917 23067 ft 459 kts 204°
2026-05-07 12:39 50.53601 -1.11890 23065 ft 459 kts 204°
2026-05-07 12:39 50.50700 -1.13834 23065 ft 459 kts 204°
2026-05-07 12:39 50.47759 -1.15801 23071 ft 459 kts 204°
2026-05-07 12:40 50.44818 -1.17767 23070 ft 459 kts 204°
2026-05-07 12:40 50.41876 -1.19730 23069 ft 459 kts 204°
2026-05-07 12:40 50.38936 -1.21690 23065 ft 460 kts 204°
2026-05-07 12:40 50.35990 -1.23650 23066 ft 460 kts 204°
2026-05-07 12:41 50.33043 -1.25609 23069 ft 460 kts 204°
2026-05-07 12:41 50.30136 -1.27539 23066 ft 460 kts 204°
2026-05-07 12:41 50.27188 -1.29492 23064 ft 460 kts 204°
2026-05-07 12:41 50.24241 -1.31443 23063 ft 460 kts 204°
2026-05-07 12:42 50.21293 -1.33392 23061 ft 460 kts 204°
2026-05-07 12:42 50.18344 -1.35339 23061 ft 460 kts 204°
2026-05-07 12:42 50.15396 -1.37283 23061 ft 460 kts 204°
2026-05-07 12:42 50.12450 -1.39223 23069 ft 460 kts 204°
2026-05-07 12:43 50.09506 -1.41158 23075 ft 459 kts 204°
2026-05-07 12:43 50.06603 -1.43065 23064 ft 459 kts 204°
2026-05-07 12:43 50.03660 -1.44995 23067 ft 459 kts 204°
2026-05-07 12:43 50.00718 -1.46921 23064 ft 459 kts 204°
2026-05-07 12:44 49.97776 -1.48846 23062 ft 459 kts 204°
2026-05-07 12:44 49.94833 -1.50768 23048 ft 459 kts 203°
2026-05-07 12:44 49.91887 -1.52690 23056 ft 459 kts 203°
2026-05-07 12:44 49.88943 -1.54607 23055 ft 459 kts 203°
2026-05-07 12:45 49.86000 -1.56522 23052 ft 459 kts 203°
2026-05-07 12:45 49.83057 -1.58434 23053 ft 459 kts 203°
2026-05-07 12:45 49.80152 -1.60319 23053 ft 459 kts 203°
2026-05-07 12:45 49.77204 -1.62230 23046 ft 459 kts 203°
2026-05-07 12:46 49.74262 -1.64133 23052 ft 459 kts 203°
2026-05-07 12:46 49.71313 -1.66039 23050 ft 459 kts 203°
2026-05-07 12:46 49.68369 -1.67939 23051 ft 459 kts 203°
2026-05-07 12:46 49.65424 -1.69838 23036 ft 459 kts 203°
2026-05-07 12:47 49.62477 -1.71735 23048 ft 459 kts 203°
2026-05-07 12:47 49.59529 -1.73631 23049 ft 459 kts 203°
2026-05-07 12:47 49.56623 -1.75496 23034 ft 458 kts 203°
2026-05-07 12:47 49.53801 -1.77303 22650 ft 419 kts 203°
2026-05-07 12:48 49.51223 -1.78951 22060 ft 385 kts 203°
2026-05-07 12:48 49.48852 -1.80468 21574 ft 355 kts 203°
2026-05-07 12:48 49.46649 -1.81876 21005 ft 333 kts 203°
2026-05-07 12:48 49.44546 -1.83220 20094 ft 324 kts 203°
2026-05-07 12:49 49.42476 -1.84541 19087 ft 321 kts 203°
2026-05-07 12:49 49.40434 -1.85845 18103 ft 316 kts 203°
2026-05-07 12:49 49.38446 -1.87111 17058 ft 311 kts 203°
2026-05-07 12:49 49.36459 -1.88375 16018 ft 307 kts 203°
2026-05-07 12:50 49.34497 -1.89623 15019 ft 304 kts 203°
2026-05-07 12:50 49.32560 -1.90853 14053 ft 300 kts 203°
2026-05-07 12:50 49.30644 -1.92069 13047 ft 295 kts 203°
2026-05-07 12:50 49.28765 -1.93261 12097 ft 289 kts 203°
2026-05-07 12:51 49.26954 -1.94408 11580 ft 272 kts 203°
2026-05-07 12:51 49.25277 -1.95469 11322 ft 250 kts 203°
2026-05-07 12:51 49.23772 -1.96562 11075 ft 230 kts 214°
2026-05-07 12:51 49.22677 -1.98278 10185 ft 234 kts 239°
2026-05-07 12:52 49.22187 -2.00728 8493 ft 249 kts 262°
2026-05-07 12:52 49.22163 -2.03328 6968 ft 240 kts 265°
2026-05-07 12:52 49.22020 -2.05829 5508 ft 233 kts 262°
2026-05-07 12:52 49.21798 -2.08258 4085 ft 228 kts 258°
2026-05-07 12:53 49.21524 -2.10626 2699 ft 225 kts 257°
2026-05-07 12:53 49.21293 -2.12979 1312 ft 223 kts 259°
2026-05-07 12:53 49.21149 -2.15259 587 ft 203 kts 264°
2026-05-07 12:53 49.21003 -2.17198 441 ft 169 kts 259°
2026-05-07 12:54 49.20866 -2.18865 285 ft 149 kts 259°
2026-05-07 12:54 49.20770 -2.19887 284 ft 46 kts 262°
2026-05-07 12:54 49.20681 -2.20103 283 ft 19 kts 178°
2026-05-07 12:54 49.20553 -2.20073 283 ft 14 kts 148°
2026-05-07 12:55 49.20533 -2.19957 284 ft 13 kts 44°
2026-05-07 12:55 49.20598 -2.19895 285 ft 6 kts 75°
2026-05-07 12:55 49.20576 -2.19867 284 ft 6 kts 170°
2026-05-07 12:55 49.20548 -2.19862 284 ft 0 kts 175°